RH
76 83 81 81 77 76 71 65 66 64 59 59 60 66 62 63 71 70 75 77 80 82 81 67 62 56 54 53 51 47 47 50 49 50 55 56 58 56 54 51 51 51 49 52 55 57 56 55 55
81 82 82 76 68 67 69 71 67 54 54 56 58 58 59 60 66 69 73 73 73 79 77 69 64 59 55 52 48 47 48 50 51 51 53 57 56 55 52 51 51 51 51 51 53 55 57 57 58
80 79 77 71 70 62 67 64 59 56 52 50 48 51 56 58 55 63 70 72 69 70 70 66 64 61 56 53 49 50 49 50 48 49 52 55 54 53 51 51 51 51 52 53 55 54 54 54 56
74 74 66 67 72 61 64 66 58 53 52 49 47 46 51 51 52 56 62 68 68 64 63 63 61 59 57 55 52 51 48 48 48 49 49 51 52 53 53 53 53 53 54 55 56 56 57 57 57
67 68 62 69 71 76 72 62 57 55 49 48 45 47 52 54 51 51 54 60 62 62 60 60 59 58 56 55 54 51 46 45 47 47 47 47 47 48 48 49 50 52 54 55 56 57 59 59 57
66 63 68 68 69 76 67 59 54 55 49 47 45 47 55 53 48 48 49 53 59 58 60 58 57 56 55 56 56 51 47 47 47 45 45 47 48 48 47 48 50 52 54 53 55 57 57 59 58
72 70 71 63 65 66 63 53 54 55 48 48 45 50 56 53 45 42 43 45 52 55 54 52 51 53 54 55 54 49 48 47 46 46 48 49 50 52 52 52 52 52 54 54 54 54 56 57 58
66 68 65 63 66 58 58 55 50 52 51 47 49 53 59 54 49 42 44 42 44 46 46 48 50 50 50 51 50 49 49 46 48 52 56 54 54 55 57 59 60 58 57 60 58 57 56 55 58
61 65 65 61 68 57 55 55 49 48 52 48 47 49 53 57 55 49 42 41 41 42 46 47 47 45 46 47 45 46 47 49 51 50 51 53 58 58 56 56 57 59 58 58 58 60 61 59 57
63 60 58 61 63 63 57 61 57 51 50 49 46 50 53 59 57 52 44 40 40 42 45 43 43 44 45 43 44 47 49 50 48 52 61 62 68 68 68 73 67 60 60 61 62 65 62 63 65
57 56 60 67 72 70 68 57 57 49 45 47 44 41 52 57 60 57 51 47 40 40 42 44 43 44 46 46 48 48 48 49 57 63 65 66 66 69 72 74 76 80 84 86 80 79 81 69 68
57 57 66 72 73 70 72 65 62 47 43 45 46 35 46 55 57 58 57 52 52 54 50 47 49 49 49 49 50 50 54 56 56 61 63 65 68 76 73 73 76 79 81 85 84 86 84 87 83
60 59 65 69 67 67 74 66 67 55 46 46 47 40 42 50 52 57 58 57 57 57 57 56 51 51 49 53 56 56 58 57 60 60 64 66 72 73 71 71 79 88 89 90 84 83 89 91 88
56 56 61 66 73 68 66 64 63 55 48 47 45 40 40 46 50 55 56 57 56 56 57 56 53 53 54 58 57 61 61 62 64 64 68 70 73 70 66 75 79 89 88 93 92 90 83 89 93
50 50 58 61 72 63 62 63 55 46 44 46 45 39 41 45 49 50 50 53 54 53 53 54 52 52 52 55 60 61 62 61 64 66 69 71 67 56 68 67 73 80 83 89 95 95 89 83 88
50 49 57 55 63 61 60 62 50 48 45 45 45 38 36 43 46 45 49 51 52 52 53 53 52 53 55 53 58 59 57 56 58 63 65 68 55 61 64 64 70 76 82 91 92 91 81 81 83
48 50 50 52 52 54 54 60 58 44 44 46 46 41 38 38 43 44 45 46 48 50 51 53 54 54 53 52 50 50 53 56 58 56 56 53 60 58 62 47 55 66 78 84 84 85 79 80 82
42 43 41 47 49 51 54 56 58 53 43 45 46 41 41 40 37 40 44 47 47 49 50 51 51 52 52 46 48 48 49 50 59 60 51 53 58 58 46 38 46 62 68 74 74 74 76 77 77
33 37 38 38 44 47 51 51 53 55 48 45 48 46 43 39 40 41 41 45 49 46 47 48 48 52 49 45 44 42 43 50 55 53 56 55 55 53 45 36 36 53 62 67 68 71 72 72 73
27 29 35 37 41 43 46 50 48 55 53 46 45 47 46 45 44 44 44 45 50 43 46 49 51 48 48 44 44 45 52 59 64 72 71 67 61 57 49 38 30 37 54 60 62 63 65 67 68
25 27 26 32 42 39 42 46 49 50 55 56 54 49 47 48 45 44 45 46 54 42 41 46 47 47 46 45 45 46 56 64 73 71 66 67 59 49 48 40 34 31 33 49 56 57 57 58 56
19 22 21 30 36 42 40 43 38 43 52 54 58 56 50 47 48 46 45 47 51 46 41 44 45 44 43 46 45 48 56 59 61 69 72 71 52 48 45 38 35 31 31 34 44 48 49 47 48
18 18 19 23 28 31 38 40 32 43 48 50 56 57 54 48 47 46 44 46 48 47 44 49 48 46 40 42 44 47 53 48 66 64 73 66 49 46 41 37 30 31 33 33 33 38 37 39 41
14 17 21 31 31 34 32 33 31 38 38 43 50 58 55 52 51 48 46 47 48 48 43 48 50 47 41 38 43 44 48 48 56 64 68 68 50 43 40 39 31 28 29 29 30 31 31 34 36
11 17 23 24 39 36 34 33 33 31 31 35 39 47 51 51 52 52 46 45 48 48 44 44 46 46 43 36 39 43 46 48 51 50 55 65 64 44 46 44 37 29 26 28 29 29 31 32 34
11 11 15 24 31 26 33 38 33 32 30 30 38 40 45 52 54 55 49 47 47 48 47 40 41 46 44 42 35 37 41 45 48 40 47 54 60 52 47 45 42 39 28 28 29 28 29 29 31
13 12 12 18 27 29 30 35 34 36 32 32 32 32 40 47 50 52 52 49 48 45 47 42 39 43 46 45 38 34 34 35 36 37 37 45 55 58 46 48 46 43 41 33 28 32 32 31 33
13 14 14 14 18 30 40 38 40 37 35 34 33 27 36 39 44 47 49 48 46 44 47 48 46 44 43 46 45 39 35 34 34 33 33 38 49 50 51 57 61 61 60 50 44 42 47 46 34
18 18 15 15 19 23 24 31 27 31 33 32 31 30 30 40 41 45 45 45 42 44 45 45 44 44 44 46 45 43 38 36 35 35 35 36 39 48 54 66 70 66 66 59 54 60 62 67 52
20 20 19 18 15 18 24 20 22 28 28 28 32 32 32 33 38 43 43 41 40 38 39 39 39 38 39 41 42 40 38 38 38 36 35 38 40 47 58 66 63 63 60 57 58 64 67 74 76